CW9648 Weather Reports


Display with metric or nautical units.
time (UTC)temp
F
wind
direction
speed
MPH
gust
MPH
rain 1hr
in
rain 24hr
in
rain mn
in
humidity
%
barometer
mb
20260906203503 94 133 1.0 5.0 0.00 0.82 0.01 64 1013.1
20260906203004 93 168 2.0 5.0 0.00 0.82 0.01 65 1013.1
20260906202504 93 187 2.0 6.0 0.00 0.82 0.01 65 1013.0
20260906202003 93 175 2.0 6.0 0.00 0.82 0.01 67 1013.1
20260906201503 93 97 2.0 4.0 0.00 0.82 0.01 68 1013.2
20260906201003 93 157 2.0 4.0 0.00 0.82 0.01 67 1013.3
20260906200503 93 184 1.0 3.0 0.00 0.82 0.01 66 1013.4
20260906200004 92 16 1.0 4.0 0.00 0.82 0.01 68 1013.4
20260906195503 92 44 2.0 4.0 0.00 0.82 0.01 69 1013.5
20260906195003 92 5 2.0 6.0 0.00 0.82 0.01 68 1013.6
20260906194524 91 346 3.0 6.0 0.00 0.82 0.01 69 1013.7
20260906194004 91 343 2.0 5.0 0.00 0.82 0.01 69 1013.7
20260906193503 92 341 2.0 5.0 0.00 0.82 0.01 68 1013.8
20260906193003 92 357 1.0 5.0 0.00 0.82 0.01 69 1013.7
20260906192503 92 40 1.0 3.0 0.00 0.82 0.01 67 1013.8
20260906192025 92 350 1.0 5.0 0.00 0.82 0.01 70 1013.9
20260906191503 92 358 1.0 5.0 0.00 0.82 0.01 68 1014.0
20260906191003 92 18 1.0 4.0 0.00 0.82 0.01 67 1014.1
20260906190504 92 217 1.0 4.0 0.00 0.82 0.01 69 1014.0
20260906190004 91 194 2.0 6.0 0.00 0.82 0.01 70 1014.1
20260906185524 92 196 3.0 6.0 0.00 0.82 0.01 65 1014.2
20260906185024 92 197 2.0 5.0 0.00 0.82 0.01 69 1014.2
20260906184524 91 33 1.0 4.0 0.00 0.82 0.01 71 1014.2
20260906184003 90 304 2.0 4.0 0.00 0.82 0.01 73 1014.1
20260906183505 90 307 2.0 4.0 0.00 0.82 0.01 71 1014.3
20260906183003 90 312 1.0 4.0 0.00 0.82 0.01 71 1014.2
20260906182524 89 33 1.0 3.0 0.00 0.82 0.01 72 1014.3
20260906182003 89 359 2.0 4.0 0.00 0.83 0.01 72 1014.4
20260906181524 88 327 2.0 4.0 0.00 0.85 0.01 73 1014.5
20260906181003 88 307 1.0 3.0 0.00 0.88 0.01 74 1014.8
20260906180524 87 304 1.0 3.0 0.00 0.90 0.01 74 1014.8
20260906180024 87 302 1.0 2.0 0.00 0.90 0.01 74 1015.0
20260906175503 86 325 2.0 4.0 0.00 0.90 0.01 74 1015.1
20260906175003 87 323 3.0 8.0 0.00 0.90 0.01 74 1015.2
20260906174503 88 317 1.0 8.0 0.00 0.90 0.01 74 1015.4
20260906174003 89 257 0.0 1.0 0.00 0.90 0.01 73 1015.3
20260906173503 89 0 0.0 0.0 0.00 0.90 0.01 73 1015.5
20260906173003 88 43 0.0 1.0 0.00 0.90 0.01 73 1015.6
20260906172503 87 11 1.0 4.0 0.00 0.90 0.01 73 1015.8
20260906172024 87 119 2.0 4.0 0.00 0.90 0.01 73 1015.7
20260906171503 87 174 1.0 4.0 0.00 0.90 0.01 73 1015.8
20260906171003 86 35 1.0 5.0 0.00 0.90 0.01 71 1015.8
20260906170503 86 30 1.0 5.0 0.00 0.90 0.01 69 1016.1
20260906170003 85 357 1.0 3.0 0.00 0.90 0.01 64 1016.0
20260906165503 84 352 1.0 4.0 0.00 0.90 0.01 67 1016.1
20260906165003 84 354 1.0 4.0 0.00 0.90 0.01 65 1016.3
20260906164503 84 24 1.0 4.0 0.00 0.90 0.01 64 1016.3
20260906164003 84 351 1.0 4.0 0.00 0.90 0.01 59 1016.4
20260906163503 83 324 1.0 3.0 0.00 0.90 0.01 52 1016.4
20260906163003 82 33 1.0 3.0 0.00 0.90 0.01 50 1016.4
20260906162503 83 10 1.0 3.0 0.00 0.90 0.01 43 1016.6
20260906162003 83 28 2.0 4.0 0.00 0.90 0.01 41 1016.5
20260906161503 83 10 2.0 5.0 0.00 0.90 0.01 39 1016.5
20260906161003 82 350 1.0 5.0 0.00 0.90 0.01 39 1016.4
20260906160503 82 8 1.0 3.0 0.00 0.90 0.01 39 1016.5
20260906160004 81 345 2.0 3.0 0.00 0.90 0.01 39 1016.4
20260906155524 80 352 2.0 4.0 0.00 0.90 0.01 39 1016.3
20260906155003 80 314 1.0 4.0 0.00 0.90 0.01 39 1016.2
20260906154524 79 306 1.0 4.0 0.00 0.90 0.01 39 1016.4
20260906154025 79 345 2.0 4.0 0.00 0.90 0.01 39 1016.3
20260906153503 79 346 1.0 4.0 0.00 0.90 0.01 40 1016.3
20260906153024 79 15 1.0 3.0 0.00 0.90 0.01 40 1016.3
20260906152503 78 91 1.0 3.0 0.00 0.90 0.01 40 1016.3
20260906152003 78 101 1.0 3.0 0.00 0.90 0.01 40 1016.4
20260906151504 78 83 0.0 2.0 0.00 0.90 0.01 40 1016.3
20260906151003 78 356 0.0 3.0 0.00 0.90 0.01 40 1016.2
20260906150503 77 326 2.0 5.0 0.00 0.90 0.01 40 1016.1
20260906150003 76 335 2.0 5.0 0.00 0.90 0.01 40 1016.2
20260906145524 76 352 1.0 4.0 0.00 0.90 0.01 40 1016.2
20260906145003 77 72 1.0 3.0 0.00 0.90 0.01 40 1016.1
20260906144503 77 94 1.0 3.0 0.00 0.90 0.01 40 1016.1
20260906144024 77 53 0.0 2.0 0.00 0.90 0.01 40 1016.1
20260906143524 77 42 1.0 2.0 0.00 0.90 0.01 40 1016.1
20260906143003 77 9 1.0 2.0 0.00 0.90 0.01 40 1016.2
20260906142503 77 342 1.0 3.0 0.00 0.90 0.01 41 1016.2
20260906142003 76 327 1.0 3.0 0.00 0.90 0.01 41 1016.2
20260906141524 76 322 1.0 2.0 0.00 0.90 0.01 41 1016.2
20260906141024 76 312 1.0 2.0 0.00 0.90 0.01 41 1016.1
20260906140503 76 321 1.0 3.0 0.00 0.90 0.01 41 1016.2
20260906140003 76 339 1.0 3.0 0.00 0.90 0.01 41 1016.2
20260906135503 76 354 1.0 2.0 0.00 0.90 0.01 41 1016.1
20260906135003 75 18 0.0 2.0 0.00 0.90 0.01 41 1016.2
20260906134503 75 15 1.0 2.0 0.00 0.90 0.01 41 1016.1
20260906134003 76 349 1.0 3.0 0.00 0.90 0.01 41 1016.2
20260906133503 76 325 1.0 3.0 0.00 0.90 0.01 41 1016.1
20260906133003 76 42 0.0 2.0 0.00 0.90 0.01 41 1016.1
20260906132504 75 347 0.0 3.0 0.00 0.90 0.01 41 1016.1
20260906132003 75 330 1.0 3.0 0.00 0.90 0.01 41 1016.0
20260906131524 75 333 0.0 3.0 0.00 0.90 0.01 41 1015.9
20260906131024 75 286 0.0 1.0 0.00 0.90 0.01 41 1015.8
20260906130503 75 286 0.0 1.0 0.00 0.90 0.01 41 1015.7
20260906130003 75 286 0.0 1.0 0.00 0.90 0.01 41 1015.7
20260906125503 75 286 0.0 1.0 0.00 0.90 0.01 41 1015.5
20260906125003 75 255 0.0 1.0 0.00 0.90 0.01 41 1015.5
20260906124524 75 234 0.0 1.0 0.00 0.90 0.01 41 1015.6
20260906124024 75 224 0.0 2.0 0.00 0.90 0.01 41 1015.4
20260906123503 75 224 0.0 2.0 0.00 0.90 0.01 41 1015.3
20260906123024 75 0 0.0 0.0 0.00 0.90 0.01 41 1015.3
20260906122524 75 0 0.0 0.0 0.00 0.90 0.01 41 1015.4
20260906122024 75 355 0.0 1.0 0.00 0.90 0.01 41 1015.4
20260906121503 75 355 0.0 1.0 0.00 0.90 0.01 41 1015.3
20260906121003 75 355 0.0 1.0 0.00 0.90 0.01 41 1015.2
20260906120503 75 355 0.0 1.0 0.00 0.90 0.01 41 1015.1
20260906120004 74 0 0.0 0.0 0.00 0.90 0.01 41 1015.0
20260906115524 74 0 0.0 0.0 0.00 0.90 0.01 41 1015.1
20260906115003 74 355 0.0 1.0 0.00 0.90 0.01 41 1015.1
20260906114503 74 355 0.0 1.0 0.00 0.90 0.01 41 1015.0
20260906114003 74 0 0.0 0.0 0.00 0.90 0.01 41 1014.8
20260906113503 74 355 0.0 1.0 0.00 0.90 0.01 41 1014.9
20260906113003 74 355 0.0 1.0 0.00 0.90 0.01 41 1014.8
20260906112503 74 355 0.0 1.0 0.00 0.90 0.01 41 1014.6
20260906112003 74 355 0.0 1.0 0.00 0.90 0.01 41 1014.6
20260906111503 74 355 0.0 1.0 0.00 0.90 0.01 41 1014.5
20260906111024 74 348 0.0 2.0 0.00 0.90 0.01 41 1014.5
20260906110504 74 355 1.0 2.0 0.00 0.90 0.01 41 1014.5
20260906110004 74 97 1.0 2.0 0.00 0.90 0.01 41 1014.4
20260906105504 74 142 1.0 2.0 0.00 0.90 0.01 41 1014.4
20260906105004 74 142 0.0 2.0 0.00 0.90 0.01 41 1014.4
20260906104504 74 142 0.0 1.0 0.00 0.90 0.01 41 1014.3
20260906104004 74 0 0.0 0.0 0.00 0.90 0.01 41 1014.3
20260906103525 74 0 0.0 0.0 0.00 0.90 0.01 41 1014.2
20260906103004 74 0 0.0 0.0 0.00 0.90 0.01 41 1014.2
20260906102504 74 0 0.0 0.0 0.00 0.90 0.01 41 1014.2
20260906102004 74 0 0.0 0.0 0.00 0.90 0.01 41 1014.1
20260906101504 74 0 0.0 0.0 0.00 0.90 0.01 41 1014.2
20260906101025 74 0 0.0 0.0 0.00 0.90 0.01 41 1014.2
20260906100525 74 0 0.0 0.0 0.00 0.90 0.01 41 1014.2
20260906100025 74 0 0.0 0.0 0.00 0.90 0.01 41 1014.1
20260906095525 74 0 0.0 0.0 0.00 0.90 0.01 41 1014.1
20260906095004 74 0 0.0 0.0 0.00 0.90 0.01 41 1014.1
20260906094504 74 0 0.0 0.0 0.00 0.90 0.01 41 1013.9
20260906094004 74 0 0.0 0.0 0.00 0.90 0.01 41 1014.0
20260906093504 74 0 0.0 0.0 0.00 0.90 0.01 41 1014.0
20260906093004 74 0 0.0 0.0 0.00 0.90 0.01 41 1013.9
20260906092504 74 0 0.0 0.0 0.01 0.90 0.01 41 1014.0
20260906092004 74 0 0.0 0.0 0.01 0.90 0.01 41 1013.9
20260906091525 74 0 0.0 0.0 0.01 0.90 0.01 41 1013.9
20260906091004 74 0 0.0 0.0 0.01 0.90 0.01 41 1013.9
20260906090504 74 0 0.0 0.0 0.01 0.90 0.01 41 1013.9
20260906090004 74 0 0.0 0.0 0.01 0.90 0.01 41 1013.7
20260906085504 74 0 0.0 0.0 0.01 0.90 0.01 41 1013.8
20260906085025 74 0 0.0 0.0 0.01 0.90 0.01 41 1013.9
20260906084504 74 0 0.0 0.0 0.01 0.90 0.01 41 1013.9
20260906084004 75 0 0.0 0.0 0.01 0.90 0.01 41 1013.9
20260906083504 75 0 0.0 0.0 0.01 0.90 0.01 41 1013.9
20260906083025 75 0 0.0 0.0 0.01 0.90 0.01 41 1013.9
20260906082504 75 0 0.0 0.0 0.00 0.89 0.00 41 1014.0
20260906082004 75 0 0.0 0.0 0.00 0.89 0.00 41 1014.1
20260906081504 75 0 0.0 0.0 0.00 0.89 0.00 41 1014.1
20260906081004 75 0 0.0 0.0 0.00 0.89 0.00 41 1014.1
20260906080525 75 0 0.0 0.0 0.00 0.89 0.00 41 1014.1
20260906080025 75 0 0.0 0.0 0.00 0.89 0.00 41 1014.1
20260906075504 75 0 0.0 0.0 0.00 0.89 0.00 41 1014.2
20260906075004 75 0 0.0 0.0 0.00 0.89 0.00 41 1014.2
20260906074504 75 0 0.0 0.0 0.00 0.89 0.00 41 1014.1
20260906074004 75 0 0.0 0.0 0.00 0.89 0.00 41 1014.1
20260906073504 75 0 0.0 0.0 0.00 0.89 0.00 41 1014.1
20260906073004 75 0 0.0 0.0 0.00 0.89 0.00 41 1014.1
20260906072525 75 0 0.0 0.0 0.00 0.89 0.00 41 1014.2
20260906072004 75 0 0.0 0.0 0.00 0.89 0.00 41 1014.2
20260906071504 75 0 0.0 0.0 0.00 0.89 0.00 41 1014.2
20260906071004 75 0 0.0 0.0 0.00 0.89 0.00 41 1014.3
20260906070504 75 0 0.0 0.0 0.00 0.89 0.00 41 1014.4
20260906070025 75 0 0.0 0.0 0.00 0.89 0.00 41 1014.4
20260906065525 75 0 0.0 0.0 0.00 0.89 0.00 41 1014.4
20260906065004 75 0 0.0 0.0 0.00 0.89 0.00 40 1014.4
20260906064504 75 0 0.0 0.0 0.00 0.89 0.00 40 1014.5
20260906064004 75 0 0.0 0.0 0.00 0.89 0.00 40 1014.5
20260906063504 75 0 0.0 0.0 0.00 0.89 0.00 40 1014.6
20260906063004 75 0 0.0 0.0 0.00 0.89 0.00 40 1014.5
20260906062504 75 0 0.0 0.0 0.00 0.89 0.00 40 1014.5
20260906062004 75 0 0.0 0.0 0.00 0.89 0.00 40 1014.4
20260906061526 75 0 0.0 0.0 0.00 0.89 0.00 40 1014.4
20260906061025 75 0 0.0 0.0 0.00 0.89 0.00 40 1014.5
20260906060504 75 0 0.0 0.0 0.00 0.89 0.00 40 1014.4
20260906060004 75 0 0.0 0.0 0.00 0.89 0.00 40 1014.4
20260906055504 75 0 0.0 0.0 0.00 0.89 0.00 40 1014.4
20260906055004 75 0 0.0 0.0 0.00 0.89 0.00 41 1014.4
20260906054504 75 0 0.0 0.0 0.00 0.89 0.00 41 1014.3
20260906054025 75 0 0.0 0.0 0.00 0.89 0.00 41 1014.5
20260906053504 76 0 0.0 0.0 0.00 0.89 0.00 40 1014.5
20260906053004 75 0 0.0 0.0 0.00 0.89 0.00 41 1014.4
20260906052504 75 0 0.0 0.0 0.00 0.89 0.00 40 1014.1
20260906052004 76 0 0.0 0.0 0.00 0.89 0.00 40 1014.1
20260906051525 75 0 0.0 0.0 0.00 0.89 0.00 40 1014.0
20260906051025 75 0 0.0 0.0 0.00 0.89 0.00 41 1014.0
20260906050504 75 0 0.0 0.0 0.00 0.89 0.00 40 1013.9
20260906050004 75 0 0.0 0.0 0.00 0.89 0.00 40 1013.9
20260906045504 75 0 0.0 0.0 0.00 0.89 0.89 40 1013.7
20260906045004 75 0 0.0 0.0 0.00 0.89 0.89 40 1014.0
20260906044504 75 0 0.0 0.0 0.00 0.89 0.89 40 1014.1
20260906044004 75 0 0.0 0.0 0.00 0.89 0.89 40 1013.8
20260906043504 75 0 0.0 0.0 0.00 0.89 0.89 40 1013.9
20260906043004 75 0 0.0 0.0 0.00 0.89 0.89 40 1013.7
20260906042525 75 0 0.0 0.0 0.00 0.89 0.89 40 1013.6
20260906042004 75 0 0.0 0.0 0.00 0.89 0.89 40 1013.6
20260906041504 75 0 0.0 0.0 0.00 0.89 0.89 40 1013.6
20260906041004 75 0 0.0 0.0 0.00 0.89 0.89 40 1013.5
20260906040504 75 0 0.0 0.0 0.00 0.89 0.89 40 1013.5
20260906040004 75 0 0.0 0.0 0.00 0.89 0.89 40 1013.5
20260906035504 75 0 0.0 0.0 0.00 0.89 0.89 40 1013.4
20260906035004 75 0 0.0 0.0 0.00 0.89 0.89 40 1013.4
20260906034504 75 0 0.0 0.0 0.00 0.89 0.89 40 1013.4
20260906034025 75 0 0.0 0.0 0.00 0.89 0.89 40 1013.4
20260906033525 75 0 0.0 0.0 0.00 0.89 0.89 40 1013.4
20260906033025 75 0 0.0 0.0 0.00 0.89 0.89 40 1013.3
20260906032506 75 0 0.0 0.0 0.00 0.89 0.89 40 1013.3
20260906032004 75 0 0.0 0.0 0.00 0.89 0.89 40 1013.2
20260906031525 75 0 0.0 0.0 0.00 0.89 0.89 40 1013.2
20260906031004 75 0 0.0 0.0 0.00 0.89 0.89 40 1013.4
20260906030504 75 0 0.0 0.0 0.00 0.89 0.89 40 1013.2
20260906030004 75 0 0.0 0.0 0.00 0.89 0.89 40 1013.2
20260906025525 75 0 0.0 0.0 0.00 0.89 0.89 40 1013.3
20260906025004 75 0 0.0 0.0 0.00 0.89 0.89 40 1013.2
20260906024525 75 0 0.0 0.0 0.00 0.89 0.89 40 1013.2
20260906024004 75 0 0.0 0.0 0.00 0.89 0.89 40 1013.2
20260906023504 76 0 0.0 0.0 0.00 0.89 0.89 40 1013.2
20260906023004 76 0 0.0 0.0 0.00 0.89 0.89 40 1013.1
20260906022504 76 0 0.0 0.0 0.00 0.89 0.89 40 1013.2
20260906022004 76 0 0.0 0.0 0.00 0.89 0.89 40 1013.0
20260906021504 76 0 0.0 0.0 0.00 0.89 0.89 40 1013.1
20260906021004 76 0 0.0 0.0 0.00 0.89 0.89 40 1012.9
20260906020504 76 0 0.0 0.0 0.00 0.89 0.89 40 1013.0
20260906020025 76 324 0.0 2.0 0.00 0.89 0.89 40 1013.1
20260906015504 76 324 0.0 2.0 0.00 0.89 0.89 40 1013.0
20260906015004 76 324 0.0 1.0 0.00 0.89 0.89 40 1013.2
20260906014504 76 324 0.0 1.0 0.00 0.89 0.89 40 1013.3
20260906014004 76 324 0.0 1.0 0.00 0.89 0.89 40 1013.3
20260906013504 76 324 0.0 1.0 0.01 0.89 0.89 40 1013.3
20260906013004 76 321 0.0 1.0 0.01 0.89 0.89 40 1013.3
20260906012504 76 319 0.0 1.0 0.02 0.89 0.89 40 1013.4
20260906012004 76 0 0.0 0.0 0.02 0.89 0.89 40 1013.3
20260906011503 76 0 0.0 0.0 0.03 0.89 0.89 40 1013.3
20260906011024 76 0 0.0 0.0 0.05 0.89 0.89 40 1013.3
20260906010504 76 0 0.0 0.0 0.06 0.89 0.89 40 1013.5
20260906010025 76 0 0.0 0.0 0.07 0.89 0.89 40 1013.6
20260906005525 76 0 0.0 0.0 0.08 0.89 0.89 40 1013.6
20260906005004 76 261 0.0 2.0 0.09 0.89 0.89 40 1013.6
20260906004504 76 261 0.0 2.0 0.09 0.89 0.89 40 1013.6
20260906004004 76 0 0.0 0.0 0.10 0.89 0.89 40 1013.7
20260906003504 76 28 0.0 1.0 0.09 0.88 0.88 40 1013.8
20260906003004 76 28 0.0 1.0 0.10 0.88 0.88 40 1013.9
20260906002504 76 0 0.0 0.0 0.10 0.87 0.87 40 1013.9
20260906002004 76 0 0.0 0.0 0.10 0.87 0.87 40 1014.0
20260906001525 76 0 0.0 0.0 0.10 0.86 0.86 40 1014.2
20260906001004 76 0 0.0 0.0 0.08 0.84 0.84 40 1014.2
20260906000504 76 28 0.0 1.0 0.08 0.83 0.83 40 1014.1
20260906000004 76 2 0.0 2.0 0.08 0.82 0.82 40 1014.2
20260905235525 76 2 0.0 2.0 0.08 0.81 0.81 40 1014.2
20260905235004 76 259 0.0 1.0 0.09 0.80 0.80 40 1014.1
20260905234504 76 259 0.0 1.0 0.11 0.80 0.80 40 1014.1
20260905234004 76 0 0.0 0.0 0.12 0.79 0.79 40 1014.2
20260905233504 76 248 0.0 1.0 0.13 0.79 0.79 40 1014.2
20260905233004 76 246 0.0 1.0 0.13 0.78 0.78 40 1014.1
20260905232504 76 153 0.0 1.0 0.13 0.77 0.77 40 1014.1
20260905232004 76 153 0.0 1.0 0.14 0.77 0.77 40 1014.1
20260905231504 76 165 0.0 1.0 0.14 0.76 0.76 40 1014.1
20260905231004 76 167 0.0 2.0 0.15 0.76 0.76 40 1014.1
20260905230504 76 163 0.0 2.0 0.14 0.75 0.75 40 1014.1
20260905230025 76 147 1.0 6.0 0.14 0.74 0.74 40 1014.2
20260905225525 77 158 2.0 6.0 0.14 0.73 0.73 40 1014.3
20260905225004 77 171 1.0 4.0 0.14 0.71 0.71 40 1014.2
20260905224504 77 153 1.0 3.0 0.17 0.69 0.69 40 1014.4
20260905224004 77 154 0.0 3.0 0.22 0.67 0.67 40 1014.5
20260905223504 77 162 0.0 2.0 0.28 0.66 0.66 40 1014.4
20260905223025 77 162 0.0 2.0 0.38 0.65 0.65 40 1014.5
20260905222504 77 166 1.0 2.0 0.51 0.64 0.64 40 1014.3
20260905222004 77 167 1.0 3.0 0.55 0.63 0.63 40 1014.2
20260905221504 77 166 0.0 3.0 0.54 0.62 0.62 40 1014.1
20260905221004 76 175 0.0 1.0 0.53 0.61 0.61 40 1014.1
20260905220504 77 175 0.0 1.0 0.53 0.61 0.61 40 1014.1
20260905220004 76 176 0.0 4.0 0.52 0.60 0.60 40 1014.3
20260905215525 77 173 1.0 4.0 0.51 0.59 0.59 41 1014.6
20260905215004 77 175 1.0 4.0 0.49 0.57 0.57 41 1014.7
20260905214504 77 131 1.0 3.0 0.44 0.52 0.52 41 1014.8
20260905214003 77 67 1.0 3.0 0.37 0.45 0.45 42 1014.9
20260905213504 78 91 2.0 4.0 0.30 0.38 0.38 45 1014.9
20260905213004 79 110 1.0 4.0 0.19 0.27 0.27 47 1014.5
20260905212503 80 112 0.0 2.0 0.05 0.13 0.13 54 1014.4
20260905212004 81 0 0.0 0.0 0.00 0.08 0.08 62 1014.4
20260905211504 81 360 0.0 2.0 0.00 0.08 0.08 66 1014.2
20260905211004 81 357 2.0 8.0 0.00 0.08 0.08 68 1014.0
20260905210504 81 349 3.0 8.0 0.00 0.08 0.08 69 1014.0
20260905210004 82 347 3.0 6.0 0.00 0.08 0.08 70 1014.0
20260905205525 82 342 4.0 10.0 0.00 0.08 0.08 70 1013.9
20260905205003 83 338 3.0 10.0 0.00 0.08 0.08 72 1013.9
20260905204503 85 324 1.0 8.0 0.00 0.08 0.08 70 1013.7
20260905204004 85 275 1.0 3.0 0.00 0.08 0.08 70 1013.7